Total_Precipitation_Accumulation
0.08 0.06 0.15 0.18 0.16 0.15 0.18 0.23 0.25 0.27 0.28 0.26 0.23 0.19 0.16 0.13 0.10 0.12 0.14 0.12 0.09 0.08 0.09 0.11 0.13 0.16 0.16 0.20 0.26 0.32 0.42 0.48 0.39 0.30 0.33 0.32 0.26 0.32 0.50 0.56 0.55 0.57 0.42
0.07 0.06 0.13 0.15 0.13 0.12 0.16 0.22 0.25 0.26 0.28 0.25 0.23 0.20 0.19 0.15 0.14 0.13 0.10 0.08 0.06 0.07 0.08 0.09 0.13 0.15 0.17 0.23 0.29 0.35 0.41 0.44 0.42 0.39 0.47 0.48 0.35 0.42 0.52 0.51 0.55 0.55 0.40
0.04 0.06 0.09 0.15 0.15 0.15 0.17 0.22 0.26 0.28 0.27 0.28 0.29 0.25 0.25 0.19 0.14 0.09 0.07 0.06 0.05 0.07 0.11 0.12 0.14 0.13 0.18 0.24 0.30 0.37 0.39 0.46 0.50 0.49 0.65 0.86 0.52 0.39 0.43 0.44 0.36 0.36 0.32
0.04 0.07 0.16 0.20 0.21 0.24 0.27 0.33 0.33 0.33 0.30 0.32 0.31 0.27 0.24 0.20 0.14 0.15 0.15 0.09 0.06 0.06 0.07 0.09 0.10 0.13 0.21 0.27 0.31 0.34 0.35 0.46 0.56 0.48 0.66 0.82 0.70 0.42 0.46 0.56 0.45 0.38 0.35
0.07 0.12 0.23 0.29 0.28 0.31 0.38 0.50 0.51 0.46 0.39 0.33 0.31 0.28 0.25 0.21 0.20 0.25 0.15 0.08 0.07 0.06 0.06 0.09 0.11 0.13 0.21 0.28 0.30 0.30 0.37 0.52 0.56 0.47 0.57 0.69 0.85 0.61 0.53 0.61 0.58 0.43 0.35
0.15 0.18 0.32 0.48 0.42 0.41 0.47 0.62 0.55 0.50 0.47 0.38 0.37 0.34 0.33 0.28 0.29 0.26 0.18 0.15 0.10 0.07 0.07 0.08 0.12 0.13 0.21 0.27 0.30 0.36 0.49 0.55 0.50 0.61 0.63 0.66 0.79 0.64 0.50 0.52 0.47 0.37 0.32
0.25 0.24 0.35 0.57 0.53 0.49 0.54 0.64 0.60 0.57 0.59 0.46 0.39 0.37 0.34 0.32 0.32 0.31 0.30 0.21 0.14 0.10 0.08 0.07 0.09 0.12 0.18 0.25 0.29 0.38 0.48 0.40 0.49 0.66 0.57 0.68 0.68 0.52 0.38 0.38 0.42 0.42 0.42
0.45 0.34 0.34 0.49 0.49 0.49 0.59 0.68 0.71 0.66 0.60 0.47 0.42 0.40 0.36 0.35 0.38 0.37 0.35 0.25 0.18 0.14 0.11 0.10 0.08 0.09 0.14 0.20 0.26 0.31 0.37 0.33 0.33 0.45 0.47 0.59 0.57 0.49 0.32 0.31 0.37 0.40 0.47
0.83 0.68 0.55 0.49 0.46 0.49 0.61 0.68 0.86 0.91 0.73 0.56 0.50 0.45 0.40 0.38 0.40 0.40 0.35 0.28 0.21 0.18 0.16 0.12 0.09 0.08 0.11 0.15 0.20 0.24 0.29 0.31 0.37 0.39 0.34 0.44 0.43 0.35 0.26 0.27 0.30 0.38 0.50
0.84 0.82 0.76 0.75 0.69 0.68 0.70 0.84 1.10 1.23 1.05 0.76 0.61 0.54 0.51 0.43 0.39 0.40 0.31 0.27 0.25 0.23 0.21 0.18 0.14 0.09 0.09 0.11 0.14 0.18 0.21 0.23 0.32 0.31 0.28 0.29 0.34 0.22 0.19 0.19 0.21 0.29 0.42
0.81 0.82 0.80 0.83 0.87 0.98 0.98 1.03 1.27 1.42 1.36 0.97 0.74 0.68 0.57 0.43 0.52 0.53 0.36 0.37 0.34 0.34 0.31 0.26 0.20 0.15 0.12 0.09 0.11 0.14 0.13 0.17 0.27 0.31 0.31 0.27 0.28 0.19 0.12 0.10 0.12 0.17 0.24
0.70 0.70 0.72 0.74 0.74 0.80 0.86 1.17 1.38 1.29 1.36 1.06 0.99 0.88 0.75 0.74 0.75 0.61 0.49 0.47 0.44 0.45 0.38 0.32 0.26 0.20 0.11 0.06 0.08 0.09 0.05 0.12 0.20 0.21 0.19 0.21 0.26 0.21 0.11 0.07 0.08 0.10 0.11
0.56 0.50 0.47 0.52 0.53 0.57 0.67 0.85 1.13 1.38 1.43 1.39 1.32 1.20 1.10 0.96 0.74 0.62 0.57 0.50 0.48 0.49 0.41 0.41 0.33 0.21 0.12 0.09 0.11 0.08 0.05 0.10 0.15 0.16 0.16 0.21 0.26 0.24 0.16 0.11 0.07 0.07 0.07
0.57 0.57 0.48 0.42 0.46 0.46 0.50 0.64 0.88 1.10 1.25 1.27 1.18 1.07 1.22 1.12 0.88 0.76 0.78 0.73 0.66 0.63 0.66 0.63 0.47 0.31 0.19 0.11 0.13 0.11 0.09 0.09 0.11 0.14 0.18 0.18 0.24 0.22 0.20 0.13 0.08 0.05 0.07
0.56 0.62 0.56 0.43 0.37 0.42 0.45 0.51 0.59 0.84 0.99 0.99 1.11 1.06 1.09 1.06 0.91 0.80 0.78 0.90 0.82 0.75 0.76 0.73 0.55 0.40 0.30 0.20 0.18 0.13 0.10 0.09 0.07 0.10 0.14 0.18 0.25 0.26 0.25 0.21 0.14 0.08 0.08
0.50 0.53 0.54 0.49 0.47 0.46 0.43 0.43 0.48 0.54 0.71 0.73 0.74 0.72 0.92 1.00 0.96 0.97 0.84 0.90 1.01 1.01 0.90 0.79 0.68 0.49 0.38 0.30 0.20 0.14 0.09 0.07 0.05 0.05 0.07 0.12 0.19 0.22 0.28 0.33 0.26 0.17 0.15
0.44 0.44 0.47 0.54 0.58 0.57 0.57 0.57 0.54 0.55 0.58 0.64 0.72 0.73 0.84 0.92 0.98 0.98 0.84 0.86 0.97 1.14 1.07 0.92 0.77 0.61 0.39 0.28 0.22 0.16 0.12 0.09 0.06 0.05 0.05 0.06 0.11 0.20 0.30 0.44 0.46 0.33 0.26
0.34 0.33 0.38 0.45 0.52 0.58 0.62 0.66 0.62 0.66 0.67 0.65 0.70 0.68 0.71 0.86 1.00 1.05 0.94 0.89 1.02 1.18 1.28 1.27 1.04 0.84 0.60 0.41 0.32 0.24 0.17 0.13 0.07 0.05 0.06 0.06 0.06 0.11 0.21 0.33 0.49 0.61 0.47
0.27 0.26 0.29 0.34 0.41 0.48 0.57 0.65 0.67 0.69 0.83 0.91 0.79 0.64 0.71 0.84 0.94 1.10 1.13 1.07 1.09 1.22 1.25 1.26 1.16 0.93 0.78 0.61 0.43 0.31 0.20 0.15 0.11 0.05 0.03 0.04 0.05 0.06 0.10 0.13 0.22 0.33 0.35
0.24 0.23 0.25 0.31 0.33 0.36 0.47 0.64 0.73 0.70 0.80 1.01 1.04 1.01 1.04 1.10 1.16 1.30 1.34 1.30 1.28 1.30 1.23 1.31 1.41 1.11 0.88 0.81 0.64 0.44 0.30 0.19 0.15 0.08 0.05 0.04 0.06 0.07 0.06 0.06 0.08 0.06 0.12
0.17 0.19 0.23 0.29 0.32 0.34 0.42 0.53 0.62 0.72 0.90 1.10 1.16 1.21 1.34 1.36 1.38 1.50 1.59 1.59 1.49 1.36 1.34 1.47 1.72 1.56 1.17 0.96 0.88 0.67 0.44 0.27 0.21 0.13 0.08 0.05 0.05 0.07 0.07 0.07 0.06 0.07 0.05
0.10 0.12 0.17 0.26 0.35 0.41 0.47 0.62 0.77 0.99 1.11 1.25 1.40 1.39 1.40 1.45 1.47 1.53 1.72 1.81 1.72 1.66 1.71 1.66 1.77 1.84 1.58 1.29 1.17 1.18 0.89 0.63 0.33 0.15 0.12 0.08 0.06 0.08 0.07 0.09 0.07 0.06 0.04
0.08 0.10 0.17 0.31 0.50 0.70 0.82 1.05 1.33 1.58 1.66 1.58 1.57 1.61 1.59 1.62 1.67 1.63 1.73 1.91 1.85 1.78 1.77 1.88 2.03 2.19 2.06 1.79 1.51 1.47 1.16 0.93 0.80 0.37 0.18 0.14 0.11 0.10 0.11 0.10 0.10 0.10 0.07
0.12 0.20 0.36 0.61 0.91 1.16 1.32 1.51 1.72 1.83 1.87 1.79 1.81 1.79 1.77 1.68 1.60 1.58 1.69 1.89 2.02 2.08 2.09 2.13 2.07 2.25 2.35 2.12 1.99 1.62 1.30 1.09 1.09 0.86 0.48 0.27 0.21 0.17 0.15 0.15 0.12 0.12 0.11
0.39 0.57 0.86 1.12 1.37 1.52 1.58 1.68 1.88 2.03 2.19 2.20 2.08 1.93 1.81 1.76 1.68 1.59 1.63 1.70 1.74 1.81 1.91 2.04 2.06 2.19 2.24 2.28 2.22 2.02 1.75 1.48 1.05 0.94 0.88 0.64 0.43 0.23 0.17 0.18 0.18 0.16 0.13
0.82 1.00 1.20 1.35 1.50 1.51 1.52 1.58 1.71 1.90 2.06 2.08 2.09 2.05 1.92 1.76 1.66 1.57 1.51 1.60 1.62 1.62 1.74 1.84 1.91 2.07 2.17 2.24 2.24 2.08 1.88 1.72 1.45 1.18 0.98 0.88 0.78 0.50 0.32 0.25 0.24 0.27 0.27